W8BUG Weather Reports


time (UTC)temp
C
wind
direction
speed
KPH
gust
KPH
rain 1hr
cm
rain 24hr
cm
rain mn
cm
humidity
%
barometer
mb
20260506013715 -17 65 1.6 8.0 0.00 0.00 0.00 1015.0
20260506013212 -17 65 3.2 8.0 0.00 0.00 0.00 1014.7
20260506012708 -17 73 3.2 8.0 0.00 0.00 0.00 1014.7
20260506012205 -17 69 4.8 9.7 0.00 0.00 0.00 1014.4
20260506011702 -17 72 4.8 11.3 0.00 0.00 0.00 1014.4
20260506011158 -17 69 3.2 8.0 0.00 0.00 0.00 1014.5
20260506010657 -17 78 3.2 11.3 0.00 0.00 0.00 1014.1
20260506010154 -17 74 3.2 4.8 0.00 0.00 0.00 1014.3
20260506005651 -17 75 4.8 8.0 0.00 0.00 0.00 1014.3
20260506005148 -17 76 4.8 9.7 0.00 0.00 0.00 1014.1
20260506004644 -17 75 4.8 9.7 0.00 0.00 0.00 1014.4
20260506004141 -17 70 3.2 9.7 0.00 0.00 0.00 1014.3
20260506003637 -17 79 3.2 12.9 0.00 0.00 0.00 1014.3
20260506003134 -17 79 3.2 4.8 0.00 0.00 0.00 1014.5
20260506002630 -17 78 8.0 12.9 0.00 0.00 0.00 1014.6
20260506002126 -17 65 4.8 11.3 0.00 0.00 0.00 1014.9
20260506001622 -17 76 3.2 4.8 0.00 0.00 0.00 1014.9
20260506001119 -17 80 4.8 9.7 0.00 0.00 0.00 1014.9
20260506000617 -17 79 1.6 4.8 0.00 0.00 0.00 1014.9
20260506000114 -17 64 3.2 8.0 0.00 0.00 0.00 1015.1
20260505235612 -17 74 6.4 11.3 0.00 0.00 0.00 1015.0
20260505235109 -17 72 1.6 1.6 0.00 0.00 0.00 1015.0
20260505234606 -17 64 4.8 11.3 0.00 0.00 0.00 1015.0
20260505234102 -17 74 6.4 12.9 0.00 0.00 0.00 1014.9
20260505233600 -17 65 0.0 9.7 0.00 0.00 0.00 1014.5
20260505233057 -17 70 3.2 11.3 0.00 0.00 0.00 1014.4
20260505232555 -17 66 1.6 8.0 0.00 0.00 0.00 1014.4
20260505232052 -17 86 9.7 14.5 0.00 0.00 0.00 1014.4
20260505231549 -17 85 6.4 11.3 0.00 0.00 0.00 1014.4
20260505231048 -17 79 4.8 9.7 0.00 0.00 0.00 1014.2
20260505230545 -17 78 3.2 14.5 0.00 0.00 0.00 1014.3
20260505230041 -17 84 4.8 9.7 0.00 0.00 0.00 1014.4
20260505225538 -17 72 4.8 9.7 0.00 0.00 0.00 1014.5
20260505225034 -17 67 3.2 8.0 0.00 0.00 0.00 1014.6
20260505224531 -17 65 3.2 4.8 0.00 0.00 0.00 1014.4
20260505224028 -17 72 3.2 4.8 0.00 0.00 0.00 1014.6
20260505223525 -17 70 9.7 11.3 0.00 0.00 0.00 1014.6
20260505223021 -17 68 4.8 8.0 0.00 0.00 0.00 1014.7
20260505222518 -17 66 0.0 4.8 0.00 0.00 0.00 1014.7
20260505222014 -17 69 1.6 8.0 0.00 0.00 0.00 1014.6
20260505221511 -17 69 1.6 4.8 0.00 0.00 0.00 1014.6
20260505221008 -17 68 4.8 4.8 0.00 0.00 0.00 1015.0
20260505220505 -17 67 3.2 8.0 0.00 0.00 0.00 1015.0
20260505220003 -17 66 1.6 4.8 0.00 0.00 0.00 1015.1
20260505215501 -17 67 1.6 1.6 0.00 0.00 0.00 1014.9
20260505214958 -17 69 0.0 4.8 0.00 0.00 0.00 1014.9
20260505214456 -17 71 1.6 11.3 0.00 0.00 0.00 1015.0
20260505213953 -17 66 0.0 3.2 0.00 0.00 0.00 1015.1
20260505213451 -17 64 0.0 0.0 0.00 0.00 0.00 1015.0
20260505212946 -17 85 1.6 3.2 0.00 0.00 0.00 1015.1
20260505212443 -17 83 1.6 14.5 0.00 0.00 0.00 1015.2
20260505211940 -17 69 1.6 3.2 0.00 0.00 0.00 1015.1
20260505211438 -17 64 3.2 16.1 0.00 0.00 0.00 1015.2
20260505210934 -17 86 3.2 14.5 0.00 0.00 0.00 1015.2
20260505210431 -17 68 1.6 9.7 0.00 0.00 0.00 1015.1
20260505205927 -17 76 9.7 12.9 0.00 0.00 0.00 1015.1
20260505205426 -17 85 6.4 9.7 0.00 0.00 0.00 1015.2
20260505204922 -17 86 4.8 8.0 0.00 0.00 0.00 1015.4
20260505204420 -17 65 9.7 16.1 0.00 0.00 0.00 1015.4
20260505203918 -17 81 4.8 12.9 0.00 0.00 0.00 1015.5
20260505203414 -17 66 1.6 4.8 0.00 0.00 0.00 1015.4
20260505202910 -17 83 6.4 8.0 0.00 0.00 0.00 1015.6
20260505202406 -17 76 3.2 3.2 0.00 0.00 0.00 1015.7
20260505201903 -17 66 3.2 8.0 0.00 0.00 0.00 1015.9
20260505201400 -17 70 1.6 4.8 0.00 0.00 0.00 1016.1
20260505200859 -17 72 0.0 9.7 0.00 0.00 0.00 1016.2
20260505200355 -17 66 0.0 9.7 0.00 0.00 0.00 1016.0
20260505195851 -17 66 3.2 4.8 0.00 0.00 0.00 1016.2
20260505195348 -17 72 4.8 9.7 0.00 0.00 0.00 1016.2
20260505194845 -17 83 4.8 9.7 0.00 0.00 0.00 1016.2
20260505194343 -17 65 0.0 11.3 0.00 0.00 0.00 1016.3
20260505193838 -17 69 3.2 8.0 0.00 0.00 0.00 1016.2
20260505193336 -17 71 3.2 9.7 0.00 0.00 0.00 1016.2
20260505192833 -17 84 4.8 4.8 0.00 0.00 0.00 1016.3
20260505192331 -17 70 0.0 4.8 0.00 0.00 0.00 1016.4
20260505191829 -17 71 4.8 4.8 0.00 0.00 0.00 1016.7
20260505191327 -17 68 3.2 11.3 0.00 0.00 0.00 1016.7
20260505190823 -17 74 6.4 20.9 0.00 0.00 0.00 1016.7
20260505190319 -17 53 6.4 14.5 0.00 0.00 0.00 1016.8
20260505185815 -17 68 0.0 12.9 0.00 0.00 0.00 1016.8
20260505185312 -17 76 4.8 8.0 0.00 0.00 0.00 1017.0
20260505184808 -17 71 1.6 8.0 0.00 0.00 0.00 1017.1
20260505184305 -17 65 1.6 9.7 0.00 0.00 0.00 1017.1
20260505183802 -17 70 4.8 11.3 0.00 0.00 0.00 1017.1
20260505183259 -17 69 1.6 8.0 0.00 0.00 0.00 1017.3
20260505182756 -17 70 4.8 4.8 0.00 0.00 0.00 1017.7
20260505182252 -17 66 0.0 11.3 0.00 0.00 0.00 1017.7
20260505181749 -17 66 0.0 14.5 0.00 0.00 0.00 1017.6
20260505181246 -17 85 4.8 9.7 0.00 0.00 0.00 1017.7
20260505180743 -17 73 3.2 12.9 0.00 0.00 0.00 1017.8
20260505180239 -17 69 4.8 12.9 0.00 0.00 0.00 1018.1
20260505175736 -17 80 6.4 11.3 0.00 0.00 0.00 1018.1
20260505175232 -17 79 8.0 16.1 0.00 0.00 0.00 1018.0
20260505174729 -17 74 3.2 12.9 0.00 0.00 0.00 1018.0
20260505174226 -17 76 12.9 22.5 0.00 0.00 0.00 1018.2
20260505173722 -17 79 1.6 22.5 0.00 0.00 0.00 1018.3
20260505173219 -17 82 3.2 20.9 0.00 0.00 0.00 1018.4
20260505172716 -17 74 1.6 9.7 0.00 0.00 0.00 1018.2
20260505172213 -17 76 4.8 12.9 0.00 0.00 0.00 1018.3
20260505171712 -17 85 17.7 25.7 0.00 0.00 0.00 1018.4
20260505171210 -17 79 4.8 11.3 0.00 0.00 0.00 1018.5
20260505170707 -17 80 1.6 14.5 0.00 0.00 0.00 1018.6
20260505170203 -17 71 4.8 12.9 0.00 0.00 0.00 1018.6
20260505165658 -17 72 1.6 9.7 0.00 0.00 0.00 1018.7
20260505165154 -17 74 1.6 8.0 0.00 0.00 0.00 1018.7
20260505164650 -17 67 4.8 12.9 0.00 0.00 0.00 1018.8
20260505164147 -17 71 4.8 8.0 0.00 0.00 0.00 1019.0
20260505163646 -17 72 4.8 12.9 0.00 0.00 0.00 1019.0
20260505163143 -17 78 1.6 17.7 0.00 0.00 0.00 1018.9
20260505162640 -17 80 6.4 12.9 0.00 0.00 0.00 1018.9
20260505162138 -17 70 0.0 8.0 0.00 0.00 0.00 1019.1
20260505161635 -17 81 3.2 8.0 0.00 0.00 0.00 1018.9
20260505161132 -17 65 0.0 4.8 0.00 0.00 0.00 1019.0
20260505160630 -17 66 0.0 9.7 0.00 0.00 0.00 1018.9
20260505160127 -17 71 1.6 8.0 0.00 0.00 0.00 1019.0
20260505153107 -17 72 1.6 3.2 0.00 0.00 0.00 1018.9
20260505152604 -17 79 4.8 12.9 0.00 0.00 0.00 1018.9
20260505152059 -17 77 6.4 9.7 0.00 0.00 0.00 1018.8
20260505151554 -17 66 1.6 1.6 0.00 0.00 0.00 1018.8
20260505151052 -17 68 1.6 3.2 0.00 0.00 0.00 1018.8
20260505150548 -17 64 0.0 3.2 0.00 0.00 0.00 1018.7
20260505140514 -17 64 0.0 3.2 0.00 0.00 0.00 1018.8
20260505124926 -17 64 0.0 1.6 0.00 0.00 0.00 1018.9
20260505124423 -17 64 0.0 0.0 0.00 0.00 0.00 1018.8
20260505123920 -17 65 0.0 1.6 0.00 0.00 0.00 1018.8
20260505123416 -17 64 0.0 0.0 0.00 0.00 0.00 1018.8
20260505122912 -17 65 0.0 1.6 0.00 0.00 0.00 1018.5
20260505122410 -17 67 0.0 1.6 0.00 0.00 0.00 1018.4
20260505121906 -17 65 0.0 1.6 0.00 0.00 0.00 1018.2
20260505121403 -17 64 1.6 1.6 0.00 0.00 0.00 1018.3
20260505120859 -17 64 0.0 1.6 0.00 0.00 0.00 1018.4
20260505120355 -17 64 0.0 1.6 0.00 0.00 0.00 1018.3
20260505115854 -17 65 0.0 0.0 0.00 0.00 0.00 1018.2
20260505115351 -17 65 0.0 0.0 0.00 0.00 0.00 1018.2
20260505114849 -17 64 0.0 1.6 0.00 0.00 0.00 1018.3
20260505114346 -17 64 0.0 0.0 0.00 0.00 0.00 1018.3
20260505113842 -17 64 0.0 0.0 0.00 0.00 0.00 1018.1
20260505113339 -17 64 0.0 0.0 0.00 0.00 0.00 1018.0
20260505112834 -17 64 0.0 0.0 0.00 0.00 0.00 1018.2
20260505112332 -17 64 0.0 0.0 0.00 0.00 0.00 1018.0
20260505111827 -17 64 0.0 0.0 0.00 0.00 0.00 1018.0
20260505111323 -17 64 0.0 1.6 0.00 0.00 0.00 1018.1
20260505110819 -17 64 0.0 1.6 0.00 0.00 0.00 1017.8
20260505110317 -17 64 0.0 3.2 0.00 0.00 0.00 1017.7
20260505101751 -17 64 0.0 0.0 0.00 0.00 0.00 1017.7
20260505101247 -17 64 0.0 0.0 0.00 0.00 0.00 1017.6
20260505100743 -17 64 0.0 0.0 0.00 0.00 0.00 1017.7
20260505100240 -17 67 1.6 1.6 0.00 0.00 0.00 1017.7
20260505095736 -17 66 0.0 0.0 0.00 0.00 0.00 1017.7
20260505095234 -17 65 0.0 0.0 0.00 0.00 0.00 1017.7
20260505094729 -17 64 0.0 0.0 0.00 0.00 0.00 1017.7
20260505094226 -17 64 0.0 0.0 0.00 0.00 0.00 1017.6
20260505093722 -17 64 0.0 1.6 0.00 0.00 0.00 1017.7
20260505093220 -17 64 0.0 1.6 0.00 0.00 0.00 1017.8
20260505092716 -17 64 0.0 1.6 0.00 0.00 0.00 1017.8
20260505092215 -17 64 0.0 1.6 0.00 0.00 0.00 1017.8
20260505091712 -17 64 0.0 1.6 0.00 0.00 0.00 1017.7
20260505091210 -17 65 1.6 1.6 0.00 0.00 0.00 1017.7
20260505090707 -17 64 0.0 1.6 0.00 0.00 0.00 1017.7
20260505090205 -17 64 0.0 1.6 0.00 0.00 0.00 1017.7
20260505085703 -17 64 0.0 1.6 0.00 0.00 0.00 1017.6
20260505085201 -17 65 0.0 1.6 0.00 0.00 0.00 1017.4
20260505084658 -17 64 0.0 3.2 0.00 0.00 0.00 1017.4
20260505084156 -17 64 0.0 0.0 0.00 0.00 0.00 1017.4
20260505083653 -17 65 0.0 1.6 0.00 0.00 0.00 1017.2
20260505083150 -17 66 1.6 1.6 0.00 0.00 0.00 1017.3
20260505082646 -17 66 1.6 3.2 0.00 0.00 0.00 1017.2
20260505082143 -17 68 1.6 3.2 0.00 0.00 0.00 1017.0
20260505081639 -17 68 1.6 3.2 0.00 0.00 0.00 1017.0
20260505081137 -17 66 1.6 3.2 0.00 0.00 0.00 1017.0
20260505080633 -17 66 1.6 3.2 0.00 0.00 0.00 1017.0
20260505080129 -17 66 1.6 3.2 0.00 0.00 0.00 1017.0
20260505075626 -17 72 1.6 3.2 0.00 0.00 0.00 1016.9
20260505075122 -17 68 1.6 3.2 0.00 0.00 0.00 1016.9
20260505074619 -17 66 3.2 3.2 0.00 0.00 0.00 1016.9
20260505074116 -17 72 3.2 4.8 0.00 0.00 0.00 1016.8
20260505073614 -17 69 1.6 4.8 0.00 0.00 0.00 1016.9
20260505073112 -17 67 1.6 3.2 0.00 0.00 0.00 1016.9
20260505072607 -17 66 1.6 3.2 0.00 0.00 0.00 1017.0
20260505072104 -17 67 0.0 4.8 0.00 0.00 0.00 1016.9
20260505071559 -17 75 3.2 4.8 0.00 0.00 0.00 1017.0
20260505071058 -17 65 1.6 8.0 0.00 0.00 0.00 1017.2
20260505070555 -17 69 1.6 3.2 0.00 0.00 0.00 1017.2
20260505070050 -17 66 1.6 3.2 0.00 0.00 0.00 1017.0
20260505065546 -17 68 1.6 3.2 0.00 0.00 0.00 1016.9
20260505065044 -17 70 3.2 4.8 0.00 0.00 0.00 1017.0
20260505064540 -17 86 4.8 8.0 0.00 0.00 0.00 1017.1
20260505064039 -17 65 0.0 3.2 0.00 0.00 0.00 1017.0
20260505063536 -17 65 0.0 1.6 0.00 0.00 0.00 1017.2
20260505063031 -17 65 0.0 3.2 0.00 0.00 0.00 1017.0
20260505062528 -17 67 1.6 1.6 0.00 0.00 0.00 1017.1
20260505062026 -17 71 3.2 3.2 0.00 0.00 0.00 1017.0
20260505061523 -17 66 0.0 3.2 0.00 0.00 0.00 1017.1
20260505061021 -17 71 1.6 3.2 0.00 0.00 0.00 1017.1
20260505060518 -17 66 1.6 3.2 0.00 0.00 0.00 1017.0
20260505060015 -17 72 3.2 3.2 0.00 0.00 0.00 1017.0
20260505055510 -17 67 3.2 3.2 0.00 0.00 0.00 1017.1
20260505055007 -17 74 3.2 9.7 0.00 0.00 0.00 1017.0
20260505054504 -17 70 1.6 8.0 0.00 0.00 0.00 1017.2
20260505054002 -17 66 0.0 4.8 0.00 0.00 0.00 1017.1
20260505053459 -17 71 4.8 4.8 0.00 0.00 0.00 1017.0
20260505052955 -17 71 3.2 4.8 0.00 0.00 0.00 1017.1
20260505052453 -17 74 4.8 11.3 0.00 0.00 0.00 1017.0
20260505051950 -17 70 3.2 4.8 0.00 0.00 0.00 1017.0
20260505051447 -17 69 1.6 3.2 0.00 0.00 0.00 1017.1
20260505050945 -17 76 1.6 3.2 0.00 0.00 0.00 1017.0
20260505050443 -17 69 3.2 3.2 0.00 0.00 0.00 1016.9
20260505041411 -17 69 1.6 3.2 0.00 0.00 0.00 1016.9
20260505040908 -17 72 3.2 4.8 0.00 0.00 0.00 1017.0
20260505040405 -17 69 3.2 3.2 0.00 0.00 0.00 1016.8
20260505035902 -17 68 3.2 3.2 0.00 0.00 0.00 1016.9
20260505035358 -17 74 3.2 4.8 0.00 0.00 0.00 1017.0
20260505034855 -17 72 3.2 4.8 0.00 0.00 0.00 1016.9
20260505034352 -17 70 1.6 3.2 0.00 0.00 0.00 1016.9
20260505033849 -17 74 3.2 3.2 0.00 0.00 0.00 1016.8
20260505033345 -17 66 3.2 3.2 0.00 0.00 0.00 1016.9
20260505032844 -17 66 1.6 4.8 0.00 0.00 0.00 1016.9
20260505032340 -17 68 3.2 3.2 0.00 0.00 0.00 1016.8
20260505031837 -17 72 3.2 3.2 0.00 0.00 0.00 1017.0
20260505031333 -17 66 0.0 4.8 0.00 0.00 0.00 1016.8
20260505030831 -17 73 1.6 3.2 0.00 0.00 0.00 1016.8
20260505030327 -17 82 3.2 3.2 0.00 0.00 0.00 1016.9
20260505025822 -17 67 3.2 8.0 0.00 0.00 0.00 1017.0
20260505025320 -17 71 1.6 8.0 0.00 0.00 0.00 1017.0
20260505024818 -17 70 1.6 4.8 0.00 0.00 0.00 1016.7
20260505024316 -17 70 1.6 3.2 0.00 0.00 0.00 1016.9
20260505023813 -17 73 1.6 4.8 0.00 0.00 0.00 1017.0
20260505023310 -17 70 1.6 8.0 0.00 0.00 0.00 1017.0
20260505022807 -17 69 1.6 9.7 0.00 0.00 0.00 1017.0
20260505022304 -17 69 4.8 9.7 0.00 0.00 0.00 1016.8
20260505021801 -17 80 1.6 4.8 0.00 0.00 0.00 1016.9
20260505021258 -17 72 0.0 9.7 0.00 0.00 0.00 1016.8
20260505020753 -17 65 4.8 11.3 0.00 0.00 0.00 1016.8
20260505020249 -17 69 1.6 4.8 0.00 0.00 0.00 1016.9
20260505015746 -17 76 3.2 3.2 0.00 0.00 0.00 1016.7
20260505015243 -17 74 3.2 9.7 0.00 0.00 0.00 1016.5
20260505014740 -17 65 1.6 4.8 0.00 0.00 0.00 1016.6
20260505014238 -17 83 4.8 8.0 0.00 0.00 0.00 1016.8